QPF
0.00 0.00 0.00 0.00 0.00 0.00 0.00 0.00 0.00 0.00 0.00 0.00 0.00 0.00 0.00 0.00 0.00 0.00 0.00 0.00 0.00 0.00 0.00 0.00 0.00 0.00 0.00 0.00 0.00 0.00 0.00 0.00 0.00 0.00 0.00 0.00 0.00 0.00 0.00 0.00 0.00 0.00 0.00
0.00 0.00 0.00 0.00 0.00 0.00 0.00 0.00 0.00 0.00 0.00 0.00 0.00 0.00 0.00 0.00 0.00 0.00 0.00 0.00 0.00 0.00 0.00 0.00 0.00 0.00 0.00 0.00 0.00 0.00 0.00 0.00 0.00 0.00 0.00 0.00 0.00 0.00 0.00 0.00 0.00 0.00 0.00
0.00 0.00 0.00 0.00 0.00 0.00 0.00 0.00 0.00 0.00 0.00 0.00 0.00 0.00 0.00 0.00 0.00 0.00 0.00 0.00 0.00 0.00 0.00 0.00 0.00 0.00 0.00 0.00 0.00 0.00 0.00 0.00 0.00 0.00 0.00 0.00 0.00 0.00 0.00 0.00 0.00 0.00 0.00
0.00 0.00 0.00 0.00 0.00 0.00 0.00 0.00 0.00 0.00 0.00 0.00 0.00 0.00 0.00 0.00 0.00 0.00 0.00 0.00 0.00 0.00 0.00 0.00 0.00 0.00 0.00 0.00 0.00 0.00 0.00 0.00 0.00 0.00 0.00 0.00 0.00 0.00 0.00 0.00 0.00 0.00 0.00
0.00 0.00 0.00 0.00 0.00 0.00 0.00 0.00 0.00 0.00 0.00 0.00 0.00 0.00 0.00 0.00 0.00 0.00 0.00 0.00 0.00 0.00 0.00 0.00 0.00 0.00 0.00 0.00 0.00 0.00 0.00 0.00 0.00 0.00 0.00 0.00 0.00 0.00 0.00 0.00 0.00 0.00 0.00
0.00 0.00 0.00 0.00 0.00 0.00 0.00 0.00 0.00 0.00 0.00 0.00 0.00 0.00 0.00 0.00 0.00 0.00 0.00 0.00 0.00 0.00 0.00 0.00 0.00 0.00 0.00 0.00 0.00 0.00 0.00 0.00 0.00 0.00 0.00 0.00 0.00 0.00 0.00 0.00 0.00 0.00 0.00
0.00 0.00 0.00 0.00 0.00 0.00 0.00 0.00 0.00 0.00 0.02 0.05 0.01 0.00 0.00 0.00 0.00 0.00 0.00 0.00 0.00 0.00 0.00 0.00 0.00 0.00 0.00 0.00 0.00 0.00 0.00 0.00 0.00 0.00 0.00 0.00 0.00 0.00 0.00 0.00 0.00 0.00 0.00
0.00 0.00 0.00 0.00 0.00 0.00 0.00 0.00 0.00 0.00 0.04 0.05 0.01 0.00 0.00 0.00 0.00 0.00 0.00 0.00 0.00 0.00 0.00 0.00 0.00 0.00 0.00 0.00 0.00 0.00 0.00 0.00 0.00 0.00 0.00 0.00 0.00 0.00 0.00 0.00 0.00 0.00 0.00
0.00 0.00 0.00 0.00 0.00 0.00 0.00 0.00 0.00 0.00 0.00 0.00 0.00 0.00 0.00 0.00 0.00 0.00 0.00 0.00 0.00 0.00 0.00 0.00 0.00 0.00 0.00 0.00 0.00 0.00 0.00 0.00 0.00 0.00 0.00 0.00 0.00 0.00 0.00 0.00 0.00 0.00 0.00
0.00 0.00 0.00 0.00 0.00 0.00 0.00 0.00 0.00 0.00 0.00 0.00 0.00 0.00 0.00 0.00 0.00 0.00 0.00 0.00 0.00 0.00 0.00 0.00 0.00 0.00 0.00 0.00 0.00 0.00 0.00 0.00 0.00 0.00 0.00 0.00 0.00 0.00 0.00 0.00 0.00 0.00 0.00
0.00 0.00 0.00 0.00 0.01 0.03 0.03 0.00 0.01 0.00 0.00 0.01 0.02 0.00 0.00 0.00 0.00 0.00 0.00 0.00 0.00 0.00 0.00 0.00 0.00 0.00 0.00 0.00 0.00 0.00 0.00 0.00 0.00 0.00 0.00 0.00 0.00 0.00 0.00 0.00 0.00 0.00 0.00
0.04 0.09 0.05 0.02 0.05 0.17 0.13 0.02 0.02 0.02 0.01 0.00 0.00 0.01 0.01 0.00 0.00 0.00 0.00 0.00 0.00 0.00 0.00 0.00 0.00 0.00 0.00 0.00 0.00 0.00 0.00 0.00 0.00 0.00 0.00 0.00 0.00 0.00 0.00 0.00 0.00 0.00 0.00
0.12 0.12 0.12 0.11 0.11 0.22 0.20 0.07 0.06 0.08 0.05 0.01 0.02 0.06 0.02 0.01 0.02 0.01 0.01 0.00 0.00 0.00 0.00 0.00 0.00 0.00 0.00 0.00 0.00 0.00 0.00 0.00 0.00 0.00 0.00 0.00 0.00 0.00 0.00 0.00 0.00 0.00 0.00
0.12 0.07 0.14 0.14 0.08 0.07 0.04 0.02 0.02 0.02 0.05 0.05 0.05 0.04 0.05 0.02 0.02 0.02 0.01 0.01 0.01 0.01 0.00 0.00 0.00 0.00 0.00 0.00 0.00 0.00 0.00 0.00 0.00 0.00 0.00 0.00 0.00 0.00 0.00 0.00 0.00 0.00 0.00
0.07 0.10 0.09 0.04 0.02 0.00 0.01 0.01 0.01 0.00 0.01 0.02 0.03 0.02 0.03 0.03 0.08 0.03 0.02 0.03 0.02 0.01 0.00 0.00 0.00 0.00 0.00 0.00 0.00 0.00 0.00 0.00 0.00 0.00 0.00 0.00 0.00 0.00 0.00 0.00 0.00 0.00 0.00
0.01 0.03 0.04 0.01 0.01 0.00 0.00 0.00 0.00 0.00 0.00 0.00 0.00 0.00 0.02 0.04 0.06 0.06 0.06 0.05 0.04 0.02 0.00 0.00 0.00 0.00 0.00 0.00 0.00 0.00 0.00 0.00 0.00 0.00 0.00 0.00 0.00 0.00 0.00 0.00 0.00 0.00 0.00
0.00 0.00 0.00 0.00 0.00 0.00 0.00 0.00 0.00 0.00 0.00 0.00 0.00 0.00 0.00 0.00 0.02 0.04 0.05 0.03 0.03 0.01 0.01 0.01 0.00 0.00 0.00 0.00 0.00 0.00 0.00 0.00 0.00 0.00 0.00 0.00 0.00 0.00 0.00 0.00 0.00 0.00 0.00
0.00 0.00 0.00 0.00 0.00 0.00 0.00 0.00 0.00 0.00 0.00 0.00 0.00 0.00 0.00 0.00 0.00 0.00 0.01 0.01 0.01 0.01 0.01 0.00 0.00 0.00 0.00 0.00 0.00 0.00 0.00 0.00 0.00 0.00 0.00 0.00 0.00 0.00 0.00 0.00 0.00 0.00 0.00
0.00 0.00 0.00 0.00 0.00 0.00 0.00 0.00 0.00 0.00 0.00 0.00 0.00 0.00 0.00 0.00 0.00 0.00 0.00 0.00 0.01 0.01 0.00 0.00 0.00 0.00 0.00 0.00 0.00 0.00 0.00 0.00 0.00 0.00 0.00 0.00 0.00 0.00 0.00 0.00 0.00 0.00 0.00
0.00 0.00 0.00 0.00 0.00 0.00 0.00 0.00 0.00 0.00 0.00 0.00 0.00 0.00 0.00 0.00 0.00 0.00 0.00 0.00 0.00 0.00 0.00 0.00 0.00 0.00 0.00 0.00 0.00 0.00 0.00 0.00 0.00 0.00 0.00 0.00 0.00 0.00 0.00 0.00 0.00 0.00 0.00
0.00 0.00 0.00 0.00 0.00 0.00 0.00 0.00 0.00 0.00 0.00 0.00 0.00 0.00 0.00 0.00 0.00 0.00 0.00 0.01 0.01 0.01 0.01 0.01 0.00 0.00 0.00 0.00 0.00 0.00 0.00 0.00 0.00 0.00 0.00 0.00 0.00 0.00 0.00 0.00 0.00 0.00 0.00
0.00 0.00 0.00 0.00 0.00 0.00 0.00 0.00 0.00 0.00 0.00 0.00 0.00 0.00 0.00 0.00 0.00 0.00 0.00 0.00 0.00 0.01 0.00 0.00 0.00 0.00 0.00 0.00 0.00 0.00 0.00 0.00 0.00 0.00 0.00 0.00 0.00 0.00 0.00 0.00 0.00 0.00 0.00
0.02 0.01 0.01 0.00 0.00 0.00 0.00 0.00 0.00 0.00 0.00 0.00 0.00 0.00 0.01 0.01 0.00 0.00 0.00 0.00 0.00 0.00 0.00 0.00 0.00 0.00 0.00 0.00 0.00 0.00 0.00 0.00 0.00 0.00 0.00 0.00 0.00 0.00 0.00 0.00 0.00 0.00 0.00
0.04 0.04 0.04 0.03 0.00 0.00 0.00 0.00 0.00 0.00 0.00 0.00 0.00 0.01 0.01 0.02 0.01 0.01 0.01 0.00 0.00 0.00 0.00 0.00 0.00 0.00 0.00 0.00 0.00 0.00 0.00 0.00 0.00 0.00 0.00 0.00 0.00 0.00 0.00 0.00 0.00 0.00 0.00
0.04 0.06 0.06 0.03 0.02 0.01 0.01 0.00 0.00 0.00 0.00 0.00 0.00 0.00 0.00 0.00 0.01 0.01 0.01 0.00 0.00 0.00 0.00 0.00 0.00 0.00 0.00 0.00 0.00 0.00 0.00 0.00 0.00 0.00 0.00 0.00 0.00 0.00 0.00 0.00 0.00 0.00 0.00
0.01 0.04 0.06 0.06 0.06 0.04 0.02 0.00 0.00 0.00 0.00 0.00 0.00 0.00 0.00 0.00 0.00 0.00 0.00 0.00 0.00 0.00 0.00 0.00 0.00 0.00 0.00 0.00 0.00 0.00 0.00 0.00 0.00 0.00 0.00 0.00 0.00 0.00 0.00 0.00 0.00 0.00 0.00
MSLP
1012.64 1013.42 1013.92 1013.91 1013.97 1013.85 1013.93 1014.12 1013.86 1014.30 1014.56 1014.67 1015.05 1015.30 1015.38 1015.56 1015.61 1015.61 1015.58 1015.51 1015.42 1015.37 1015.18 1014.91 1014.80 1014.49 1014.25 1014.43 1014.76 1015.24 1015.60 1016.04 1017.45 1018.81 1019.14 1019.58 1019.82 1019.90 1020.05 1020.20 1020.35 1020.40 1020.56
1012.56 1013.61 1014.24 1014.31 1014.06 1014.16 1014.10 1014.37 1014.29 1014.47 1014.42 1014.57 1014.99 1015.33 1015.63 1015.77 1015.89 1015.91 1015.85 1015.97 1015.96 1015.74 1015.60 1015.14 1015.17 1014.90 1015.00 1015.01 1015.28 1015.79 1016.13 1016.44 1017.18 1018.46 1019.48 1019.96 1020.26 1020.43 1020.49 1020.70 1020.92 1021.06 1021.07
1012.38 1013.38 1014.22 1014.15 1014.20 1014.37 1014.37 1014.38 1014.47 1014.52 1014.70 1015.09 1015.15 1015.34 1015.61 1015.87 1016.08 1016.10 1016.14 1016.33 1016.25 1015.98 1015.83 1015.55 1015.46 1015.35 1015.47 1015.59 1015.98 1016.41 1016.59 1016.96 1017.49 1018.37 1019.46 1020.06 1020.52 1020.75 1020.89 1021.07 1021.23 1021.28 1021.29
1012.85 1013.40 1014.14 1014.17 1014.10 1014.38 1014.61 1014.92 1015.09 1015.18 1015.20 1015.33 1015.30 1015.47 1015.67 1015.97 1016.36 1016.45 1016.49 1016.54 1016.42 1016.34 1016.09 1015.86 1015.75 1015.75 1015.82 1016.10 1016.45 1016.62 1016.81 1017.28 1017.93 1018.63 1019.49 1020.01 1020.44 1020.91 1020.99 1021.27 1021.63 1021.69 1021.91
1013.17 1013.45 1014.24 1014.39 1014.40 1014.31 1014.56 1015.07 1015.45 1015.85 1015.94 1015.88 1015.68 1015.75 1015.99 1015.98 1016.28 1016.58 1016.62 1016.83 1016.74 1016.70 1016.52 1016.28 1016.19 1016.13 1016.10 1016.32 1016.61 1016.98 1017.14 1017.60 1018.13 1018.64 1019.27 1019.86 1020.36 1020.85 1021.04 1021.19 1021.52 1021.74 1022.02
1013.20 1013.84 1014.42 1014.39 1014.79 1014.67 1014.78 1014.92 1015.04 1015.58 1016.08 1016.19 1016.24 1016.08 1016.22 1016.11 1016.21 1016.48 1016.65 1016.84 1017.01 1017.09 1017.08 1016.92 1016.72 1016.57 1016.47 1016.68 1016.91 1017.16 1017.36 1017.87 1018.33 1018.74 1019.27 1019.71 1020.18 1020.52 1020.76 1021.04 1021.34 1021.79 1022.18
1012.70 1013.41 1013.85 1014.10 1014.58 1014.80 1014.91 1015.05 1015.09 1015.52 1015.95 1016.38 1016.34 1016.33 1016.41 1016.36 1016.25 1016.43 1016.71 1016.98 1017.14 1017.36 1017.45 1017.40 1017.25 1017.21 1017.16 1017.20 1017.33 1017.48 1017.70 1017.98 1018.19 1018.36 1018.95 1019.45 1019.92 1020.08 1020.34 1020.78 1020.98 1021.26 1021.58
1012.48 1013.00 1013.40 1013.72 1014.11 1014.33 1014.96 1015.22 1015.14 1015.44 1015.87 1016.28 1016.66 1016.67 1016.74 1016.71 1016.40 1016.60 1016.86 1017.22 1017.60 1017.63 1017.64 1017.71 1017.62 1017.77 1017.74 1017.57 1017.78 1018.04 1018.25 1018.33 1018.39 1018.44 1018.70 1019.06 1019.40 1019.73 1019.96 1020.27 1020.58 1021.16 1021.50
1011.95 1012.54 1012.98 1013.04 1013.65 1014.10 1014.55 1014.89 1015.02 1015.32 1015.92 1015.94 1016.20 1016.48 1016.73 1016.81 1016.49 1016.65 1016.90 1017.37 1017.83 1017.85 1017.91 1017.91 1017.89 1018.08 1018.07 1018.10 1018.22 1018.72 1018.93 1018.91 1018.61 1018.62 1018.81 1018.92 1019.19 1019.48 1019.81 1020.25 1020.84 1021.31 1021.83
1011.38 1011.91 1012.18 1012.73 1013.35 1013.86 1014.17 1014.50 1014.54 1014.95 1015.34 1015.72 1016.07 1016.08 1016.19 1016.58 1016.72 1016.72 1016.88 1017.30 1017.97 1018.03 1018.11 1018.10 1017.98 1018.03 1018.17 1018.38 1018.54 1018.89 1019.17 1019.41 1019.20 1019.31 1019.48 1019.53 1019.68 1019.81 1019.87 1020.08 1020.45 1021.16 1021.64
1010.91 1011.51 1012.21 1012.85 1013.29 1013.30 1013.78 1013.88 1014.07 1014.50 1014.97 1015.41 1015.69 1015.76 1015.96 1016.09 1016.37 1016.66 1016.85 1017.13 1017.46 1017.76 1018.00 1018.21 1018.13 1018.19 1018.40 1018.66 1018.78 1019.00 1019.13 1019.33 1019.59 1019.68 1019.91 1020.05 1020.19 1020.32 1020.39 1020.42 1020.51 1020.72 1021.10
1010.78 1011.52 1012.06 1012.45 1013.29 1013.27 1013.11 1013.37 1013.99 1014.20 1014.82 1015.15 1015.42 1015.59 1015.58 1015.76 1015.99 1016.33 1016.52 1016.74 1017.01 1017.23 1017.59 1017.74 1017.95 1018.11 1018.32 1018.53 1018.80 1019.05 1019.22 1019.42 1019.70 1020.06 1020.28 1020.42 1020.52 1020.62 1020.59 1020.52 1020.55 1020.65 1020.62
1011.05 1011.49 1012.26 1012.28 1012.29 1013.02 1013.47 1013.70 1014.03 1014.45 1014.65 1014.83 1015.13 1015.21 1015.38 1015.53 1015.79 1015.85 1016.01 1016.22 1016.60 1016.91 1017.04 1017.28 1017.69 1018.08 1018.26 1018.37 1018.57 1018.91 1019.19 1019.51 1019.88 1020.25 1020.27 1020.33 1020.24 1020.25 1020.47 1020.51 1020.63 1020.74 1020.73
1011.13 1011.33 1011.66 1012.14 1012.47 1012.56 1013.22 1013.50 1013.69 1014.07 1014.36 1014.40 1014.66 1014.71 1014.99 1015.31 1015.50 1015.69 1015.91 1016.10 1016.29 1016.71 1016.86 1017.24 1017.52 1017.99 1018.22 1018.30 1018.52 1018.80 1018.99 1019.16 1019.38 1019.57 1019.85 1019.87 1020.03 1020.18 1020.39 1020.61 1020.78 1020.83 1020.99
1011.58 1011.81 1012.05 1011.94 1012.28 1012.89 1013.26 1014.05 1013.91 1013.99 1014.16 1014.22 1014.18 1014.23 1014.45 1014.54 1014.58 1014.90 1015.30 1015.76 1015.91 1016.15 1016.71 1017.35 1017.79 1018.10 1018.43 1018.58 1018.66 1018.65 1018.80 1018.93 1019.00 1019.07 1019.46 1019.71 1019.91 1020.13 1020.38 1020.50 1020.62 1021.00 1021.08
1012.01 1012.30 1012.54 1012.46 1013.02 1013.19 1013.53 1014.02 1014.36 1014.26 1014.16 1014.33 1014.38 1014.42 1014.14 1013.93 1014.07 1014.33 1014.58 1014.99 1015.48 1015.98 1016.51 1016.82 1017.21 1017.52 1017.77 1018.03 1018.30 1018.56 1018.66 1018.70 1018.80 1018.87 1019.07 1019.38 1019.80 1020.05 1020.18 1020.31 1020.49 1020.88 1020.99
1012.37 1012.33 1012.51 1012.85 1012.98 1013.36 1013.66 1014.18 1014.60 1014.17 1014.06 1014.18 1014.31 1014.24 1014.21 1013.98 1013.90 1013.86 1014.09 1014.48 1015.00 1015.80 1016.09 1016.24 1016.43 1016.74 1017.05 1017.44 1017.75 1018.06 1018.17 1018.17 1018.31 1018.65 1018.79 1019.02 1019.25 1019.56 1019.85 1020.06 1020.30 1020.58 1020.74
1012.40 1012.57 1012.71 1012.71 1013.26 1013.10 1013.72 1014.14 1014.27 1014.16 1013.91 1014.02 1014.14 1014.09 1014.02 1013.84 1013.75 1013.86 1014.08 1014.72 1015.39 1015.60 1015.47 1015.52 1015.81 1016.06 1016.34 1016.70 1017.05 1017.47 1017.63 1017.88 1018.07 1018.17 1018.55 1018.63 1018.81 1019.04 1019.51 1019.60 1019.75 1020.00 1020.18
1013.07 1012.91 1013.01 1013.12 1013.11 1013.02 1013.19 1013.44 1013.94 1013.98 1013.67 1013.64 1013.77 1013.85 1013.84 1013.90 1013.84 1013.99 1014.13 1013.91 1014.31 1014.78 1014.95 1015.02 1015.03 1015.31 1015.46 1015.85 1016.18 1016.52 1016.78 1017.06 1017.23 1017.53 1017.82 1018.09 1018.17 1018.57 1018.71 1018.78 1018.99 1019.21 1019.44
1012.97 1012.75 1013.03 1013.13 1012.97 1013.05 1013.58 1013.25 1013.47 1013.54 1013.18 1013.15 1013.20 1013.08 1013.45 1013.78 1013.81 1013.90 1013.95 1013.80 1013.78 1014.01 1014.18 1014.31 1014.46 1014.68 1014.62 1014.89 1015.26 1015.60 1016.02 1016.33 1016.53 1016.70 1016.86 1017.14 1017.34 1017.57 1017.83 1018.00 1018.27 1018.58 1018.80
1012.55 1012.74 1012.69 1012.94 1013.05 1013.42 1013.56 1013.50 1013.11 1012.85 1012.57 1012.46 1012.29 1012.15 1012.37 1012.79 1013.00 1013.14 1013.19 1013.16 1013.22 1013.29 1013.54 1013.67 1013.73 1013.83 1014.08 1014.10 1014.42 1014.77 1015.10 1015.32 1015.46 1015.55 1015.64 1015.99 1016.40 1016.90 1016.89 1017.04 1017.41 1017.66 1017.95
1012.50 1012.30 1012.51 1012.64 1012.90 1013.13 1013.08 1013.07 1012.77 1012.36 1011.92 1011.74 1011.43 1011.50 1011.79 1012.18 1012.18 1012.25 1012.35 1012.31 1012.51 1012.74 1012.92 1013.07 1013.17 1013.22 1013.31 1013.46 1013.55 1013.76 1013.91 1014.05 1014.15 1014.33 1014.56 1014.82 1015.22 1015.61 1015.92 1016.38 1016.62 1016.85 1017.11
1012.22 1012.20 1012.17 1012.27 1012.55 1012.73 1012.65 1012.83 1012.40 1011.97 1011.45 1011.12 1010.97 1011.02 1011.38 1011.47 1011.50 1011.49 1011.36 1011.49 1011.68 1011.90 1012.08 1012.35 1012.51 1012.47 1012.31 1012.32 1012.35 1012.38 1012.48 1012.43 1012.50 1012.74 1013.21 1013.73 1014.11 1014.55 1015.04 1015.48 1015.67 1016.08 1016.26
1011.57 1011.63 1011.83 1011.94 1012.04 1012.25 1012.32 1012.34 1012.03 1011.55 1011.00 1010.74 1010.85 1010.77 1010.67 1010.69 1010.87 1011.04 1011.15 1011.06 1011.11 1011.28 1011.41 1011.42 1011.40 1011.33 1011.23 1011.10 1011.05 1011.00 1010.93 1010.98 1011.12 1011.36 1011.57 1012.35 1012.88 1013.31 1013.74 1014.23 1014.61 1015.16 1015.78
1011.01 1011.20 1011.36 1011.47 1011.82 1011.77 1012.15 1011.97 1011.59 1011.65 1011.25 1011.01 1011.05 1010.85 1010.68 1010.69 1010.97 1011.06 1010.91 1010.72 1010.74 1010.84 1010.82 1010.96 1010.82 1010.46 1010.19 1009.92 1009.80 1009.71 1009.74 1009.90 1010.16 1010.16 1010.59 1011.16 1011.79 1012.27 1012.79 1013.38 1013.93 1014.46 1014.91
1010.66 1010.88 1011.11 1011.14 1011.76 1011.94 1012.45 1012.46 1012.21 1012.00 1011.98 1011.91 1011.82 1011.79 1011.78 1011.86 1011.84 1011.60 1011.56 1011.34 1011.11 1010.95 1011.01 1010.81 1010.76 1010.69 1010.17 1009.86 1009.67 1009.04 1009.14 1009.52 1009.73 1009.97 1010.35 1010.85 1011.52 1012.50 1013.26 1013.71 1013.98 1014.88 1014.72
Thickness
5762 5749 5740 5737 5731 5730 5726 5719 5722 5718 5716 5717 5716 5715 5716 5715 5717 5717 5718 5720 5721 5723 5726 5728 5729 5733 5735 5732 5728 5724 5720 5715 5701 5690 5689 5684 5682 5680 5678 5676 5674 5674 5672
5761 5746 5735 5731 5731 5726 5726 5722 5720 5718 5719 5717 5715 5713 5712 5712 5712 5711 5713 5713 5714 5718 5719 5725 5725 5729 5728 5727 5723 5718 5714 5710 5704 5693 5684 5680 5677 5675 5674 5672 5669 5668 5667
5761 5747 5735 5733 5729 5724 5722 5721 5719 5718 5716 5713 5713 5712 5711 5709 5707 5707 5708 5707 5709 5714 5716 5720 5721 5722 5722 5720 5716 5711 5709 5705 5699 5690 5682 5677 5672 5670 5668 5666 5664 5662 5661
5754 5745 5734 5731 5729 5724 5719 5713 5711 5710 5710 5708 5710 5708 5707 5706 5701 5701 5701 5702 5705 5707 5711 5714 5715 5716 5715 5712 5708 5707 5705 5700 5692 5686 5678 5674 5670 5665 5665 5662 5658 5656 5653
5747 5742 5732 5730 5726 5723 5718 5709 5705 5702 5702 5701 5703 5702 5700 5701 5699 5697 5697 5696 5699 5700 5703 5706 5707 5709 5709 5706 5703 5700 5698 5693 5688 5683 5677 5672 5667 5662 5660 5659 5655 5652 5648
5743 5736 5729 5727 5720 5719 5717 5713 5707 5699 5695 5694 5693 5694 5693 5696 5695 5693 5693 5693 5693 5693 5693 5695 5697 5699 5701 5699 5697 5694 5691 5686 5682 5678 5672 5668 5664 5661 5658 5655 5652 5648 5642
5746 5737 5732 5727 5720 5715 5713 5710 5707 5696 5691 5687 5686 5686 5687 5687 5689 5689 5687 5687 5687 5685 5685 5685 5687 5688 5690 5689 5689 5687 5684 5681 5678 5675 5669 5664 5660 5659 5656 5651 5649 5645 5641
5743 5738 5733 5728 5720 5717 5710 5706 5706 5700 5690 5683 5680 5680 5680 5680 5683 5683 5681 5678 5676 5677 5677 5677 5678 5678 5679 5681 5678 5676 5673 5672 5671 5669 5666 5662 5659 5656 5652 5650 5646 5639 5635
5744 5736 5731 5730 5721 5715 5710 5708 5705 5700 5689 5685 5681 5678 5677 5676 5678 5678 5677 5672 5669 5671 5670 5670 5670 5668 5669 5669 5668 5664 5661 5661 5663 5661 5659 5658 5654 5651 5647 5643 5636 5631 5624
5745 5739 5735 5726 5719 5714 5711 5707 5707 5700 5694 5687 5680 5679 5678 5674 5672 5674 5673 5669 5663 5664 5662 5662 5664 5664 5663 5661 5659 5657 5653 5652 5651 5650 5648 5647 5645 5641 5638 5636 5631 5624 5617
5745 5738 5729 5721 5714 5714 5709 5708 5706 5700 5693 5687 5683 5681 5678 5676 5673 5670 5669 5667 5664 5661 5660 5656 5657 5657 5656 5654 5653 5650 5648 5645 5642 5639 5637 5635 5632 5630 5628 5626 5623 5619 5610
5739 5731 5722 5719 5710 5709 5711 5710 5702 5698 5690 5685 5680 5679 5678 5676 5674 5670 5667 5666 5664 5663 5658 5656 5654 5653 5651 5649 5646 5644 5641 5639 5634 5630 5627 5626 5623 5619 5618 5616 5613 5609 5606
5730 5726 5717 5715 5714 5708 5703 5701 5697 5692 5688 5683 5678 5677 5675 5673 5671 5670 5668 5665 5661 5659 5658 5655 5650 5646 5645 5642 5641 5638 5634 5630 5625 5621 5619 5618 5616 5614 5609 5606 5602 5598 5594
5723 5721 5718 5713 5708 5706 5699 5695 5693 5690 5685 5684 5679 5677 5673 5669 5668 5665 5663 5661 5658 5654 5651 5647 5643 5639 5637 5636 5633 5629 5626 5623 5621 5619 5614 5612 5608 5604 5599 5593 5589 5586 5582
5713 5712 5708 5707 5702 5697 5693 5684 5684 5683 5680 5681 5680 5678 5673 5669 5668 5665 5661 5657 5655 5652 5645 5638 5633 5630 5626 5625 5623 5622 5619 5616 5615 5612 5607 5603 5599 5595 5590 5585 5582 5576 5573
5702 5699 5696 5697 5690 5687 5685 5679 5671 5672 5672 5668 5666 5665 5669 5669 5666 5660 5656 5653 5648 5643 5638 5633 5629 5627 5624 5620 5616 5613 5611 5610 5607 5605 5601 5596 5591 5586 5583 5578 5573 5569 5565
5688 5690 5688 5684 5682 5678 5673 5668 5664 5666 5664 5663 5660 5659 5659 5661 5659 5656 5653 5649 5643 5635 5633 5629 5628 5624 5620 5615 5611 5607 5606 5604 5602 5596 5593 5589 5585 5579 5574 5569 5565 5560 5556
5681 5679 5677 5677 5672 5673 5664 5659 5658 5660 5662 5661 5653 5652 5652 5652 5652 5648 5645 5639 5633 5629 5630 5629 5625 5620 5616 5610 5606 5602 5599 5595 5591 5588 5583 5580 5576 5572 5565 5563 5559 5555 5551
5665 5666 5664 5663 5663 5664 5661 5656 5650 5651 5653 5651 5650 5647 5644 5642 5642 5638 5636 5640 5636 5629 5624 5623 5620 5615 5613 5609 5604 5598 5594 5589 5585 5580 5575 5571 5568 5562 5559 5558 5554 5550 5547
5656 5659 5656 5654 5655 5653 5647 5649 5645 5643 5646 5645 5644 5646 5639 5635 5634 5632 5628 5628 5629 5626 5620 5616 5613 5608 5608 5605 5600 5593 5587 5581 5578 5576 5572 5567 5563 5559 5555 5553 5548 5544 5539
5649 5648 5649 5645 5643 5638 5636 5636 5639 5640 5640 5640 5640 5641 5637 5634 5631 5627 5623 5619 5618 5616 5612 5609 5607 5604 5598 5596 5592 5586 5580 5576 5574 5572 5569 5564 5559 5553 5551 5548 5544 5542 5536
5639 5641 5639 5637 5635 5631 5629 5628 5630 5631 5634 5635 5636 5632 5625 5622 5622 5619 5616 5613 5609 5606 5603 5600 5597 5593 5589 5586 5583 5579 5576 5573 5571 5569 5565 5561 5556 5551 5547 5541 5537 5534 5532
5629 5630 5632 5630 5626 5623 5622 5618 5620 5621 5623 5625 5627 5624 5616 5614 5612 5610 5608 5604 5600 5596 5592 5588 5585 5583 5582 5579 5577 5575 5573 5573 5571 5567 5563 5557 5552 5546 5540 5535 5533 5529 5525
5624 5623 5619 5619 5619 5615 5610 5607 5608 5610 5613 5614 5611 5610 5608 5605 5601 5598 5593 5591 5590 5586 5583 5580 5579 5578 5576 5573 5572 5572 5572 5570 5567 5565 5562 5555 5549 5543 5538 5532 5526 5520 5515
5617 5615 5614 5610 5605 5604 5599 5598 5599 5596 5597 5598 5594 5596 5595 5592 5587 5583 5581 5580 5577 5574 5572 5570 5568 5569 5569 5570 5570 5569 5568 5565 5560 5560 5555 5549 5543 5537 5532 5525 5519 5512 5507
5608 5607 5603 5601 5594 5590 5585 5580 5579 5578 5576 5575 5574 5574 5572 5568 5566 5565 5562 5561 5561 5560 5557 5558 5556 5556 5559 5558 5559 5563 5561 5556 5552 5548 5542 5536 5528 5518 5511 5506 5503 5494 5493